CW1035 Port Townsend WA US current weather conditions

sailwx.info

Wind from 271

Air temperature 7.8° C
Dewpoint 6.7° C

Last reported at 2019-Dec-08 14:53 UTC.
Time now 2019-Dec-08 15:21 UTC

Location: N 48°08' W 122°46'.
View on Google Maps.

See reports from other nearby stations

  
Tides and Currents Weather Stations Pressure Air Temp Water Temp Dewpoint Dewpoint Depression Visibility Wind Speed Wind Dir Waves Ship Positions
date/time (UTC)wind fromknots sea level pressurealtimeterstation pressurevisibilityair tempwater tempwave heightnotes
2019-Dec-08 14:53 271 7.8
2019-Dec-08 14:48 272 7.8
2019-Dec-08 14:43 256 0 gusting 0 7.8
2019-Dec-08 14:38 268 0 gusting 2 7.8
2019-Dec-08 14:33 285 7.8
2019-Dec-08 14:28 250 0 gusting 2 7.8
2019-Dec-08 14:23 243 7.8
2019-Dec-08 14:18 259 7.8
2019-Dec-08 14:13 237 1 gusting 2 7.8
2019-Dec-08 14:08 233 0 gusting 1 7.8
2019-Dec-08 14:03 259 7.8
2019-Dec-08 13:58 257 0 gusting 0 7.8
2019-Dec-08 13:53 275 7.8
2019-Dec-08 13:48 228 7.8
2019-Dec-08 13:43 253 1 gusting 2 7.8
2019-Dec-08 13:38 288 7.8
2019-Dec-08 13:33 319 8.3
2019-Dec-08 13:28 307 0 gusting 4 8.3
2019-Dec-08 13:23 323 1 gusting 4 8.3
2019-Dec-08 13:18 347 0 gusting 4 8.3
2019-Dec-08 13:13 320 8.3
2019-Dec-08 13:08 319 8.3
2019-Dec-08 13:03 336 0 gusting 3 8.3
2019-Dec-08 12:58 288 2 gusting 3 8.3
2019-Dec-08 12:53 301 0 gusting 3 8.3
2019-Dec-08 12:48 320 1 gusting 2 8.3
2019-Dec-08 12:43 253 1 gusting 3 8.3
2019-Dec-08 12:38 294 1 gusting 3 8.3
2019-Dec-08 12:33 266 1 gusting 4 8.3
2019-Dec-08 12:28 321 0 gusting 4 8.3
2019-Dec-08 12:23 321 3 gusting 3 8.3
2019-Dec-08 12:18 309 8.3
2019-Dec-08 12:13 303 3 gusting 3 8.3
2019-Dec-08 12:08 320 8.3
2019-Dec-08 12:03 240 0 gusting 2 8.3
2019-Dec-08 11:58 352 8.3
2019-Dec-08 11:53 284 0 gusting 3 8.3
2019-Dec-08 11:48 327 0 gusting 4 8.3
2019-Dec-08 11:43 312 1 gusting 4 8.3
2019-Dec-08 11:38 278 3 gusting 4 8.3
2019-Dec-08 11:33 290 0 gusting 6 8.3
2019-Dec-08 11:28 352 3 gusting 6 8.3
2019-Dec-08 11:23 325 3 gusting 3 8.3
2019-Dec-08 11:18 262 0 gusting 5 8.3
2019-Dec-08 11:13 293 1 gusting 5 8.3
2019-Dec-08 11:08 282 8.3
2019-Dec-08 11:03 266 8.3
2019-Dec-08 10:58 261 1 gusting 4 8.3
2019-Dec-08 10:53 333 0 gusting 4 8.3
2019-Dec-08 10:48 300 0 gusting 4 8.3
2019-Dec-08 10:43 260 0 gusting 4 8.3
2019-Dec-08 10:38 328 0 gusting 4 8.3
2019-Dec-08 10:33 322 0 gusting 4 8.3
2019-Dec-08 10:28 298 1 gusting 4 8.3
2019-Dec-08 10:23 293 0 gusting 4 8.3
2019-Dec-08 10:18 281 8.3
2019-Dec-08 10:13 283 2 gusting 4 8.3
2019-Dec-08 10:08 333 8.3
2019-Dec-08 10:03 274 2 gusting 5 8.3
2019-Dec-08 09:58 333 2 gusting 4 8.3
2019-Dec-08 09:53 300 0 gusting 4 8.3
2019-Dec-08 09:48 293 2 gusting 5 8.3
2019-Dec-08 09:43 323 8.3
2019-Dec-08 09:38 328 0 gusting 4 8.3
2019-Dec-08 09:33 278 0 gusting 5 8.3
2019-Dec-08 09:28 324 1 gusting 5 8.3
2019-Dec-08 09:23 272 0 gusting 4 8.3
2019-Dec-08 09:18 288 1 gusting 4 8.3
2019-Dec-08 09:13 270 1 gusting 4 8.3
2019-Dec-08 09:08 263 0 gusting 2 8.3
2019-Dec-08 09:03 282 2 gusting 2 8.3
2019-Dec-08 08:58 316 1 gusting 2 8.3
2019-Dec-08 08:53 250 1 gusting 3 8.3
2019-Dec-08 08:48 272 8.3
2019-Dec-08 08:43 330 8.3
2019-Dec-08 08:38 312 8.3
2019-Dec-08 08:33 307 8.3
2019-Dec-08 08:28 297 1 gusting 1 8.3
2019-Dec-08 08:23 299 8.3
2019-Dec-08 08:18 331 8.3
2019-Dec-08 08:13 272 0 gusting 0 8.3
2019-Dec-08 08:08 268 8.3
2019-Dec-08 08:03 300 8.3
2019-Dec-08 07:58 274 0 gusting 2 8.3
2019-Dec-08 07:53 275 8.3
2019-Dec-08 07:48 266 0 gusting 2 8.3
2019-Dec-08 07:43 277 8.3
2019-Dec-08 07:38 278 0 gusting 3 8.3
2019-Dec-08 07:33 285 0 gusting 3 8.3
2019-Dec-08 07:28 277 8.3
2019-Dec-08 07:23 289 0 gusting 2 7.8
2019-Dec-08 07:18 271 0 gusting 1 7.8
2019-Dec-08 07:13 289 7.8
2019-Dec-08 07:08 295 0 gusting 1 7.8
2019-Dec-08 07:03 288 7.8
2019-Dec-07 17:13 149 4 gusting 9 8.3
2019-Dec-07 17:08 113 6 gusting 9 8.3
2019-Dec-07 17:03 097 5 gusting 10 8.3
2019-Dec-07 16:58 129 6 gusting 10 8.3
2019-Dec-07 16:53 136 2 gusting 7 8.3
2019-Dec-07 16:48 138 1 gusting 7 8.3
2019-Dec-07 16:43 131 1 gusting 7 8.3
2019-Dec-07 16:38 128 3 gusting 7 8.3
2019-Dec-07 16:33 111 3 gusting 7 8.3
2019-Dec-07 16:28 136 4 gusting 7 8.3
2019-Dec-07 16:23 147 6 gusting 8 8.3
2019-Dec-07 16:18 121 5 gusting 8 8.3
2019-Dec-07 16:13 110 3 gusting 8 7.8
2019-Dec-07 16:08 136 3 gusting 6 8.3
2019-Dec-07 16:03 107 2 gusting 8 8.3
2019-Dec-07 15:58 128 2 gusting 8 8.3
2019-Dec-07 15:53 129 2 gusting 8 8.3
2019-Dec-07 15:48 146 3 gusting 8 8.3
2019-Dec-07 15:43 103 2 gusting 7 8.3
2019-Dec-07 15:38 146 2 gusting 7 8.3
2019-Dec-07 15:33 157 2 gusting 7 8.3
2019-Dec-07 15:28 136 6 gusting 9 8.3
2019-Dec-07 15:23 155 4 gusting 9 8.3
2019-Dec-07 15:18 143 2 gusting 9 8.3
2019-Dec-07 15:13 167 2 gusting 8 8.3
2019-Dec-07 15:08 191 3 gusting 10 8.3
2019-Dec-07 15:03 157 2 gusting 10 8.3
2019-Dec-07 14:58 174 3 gusting 9 8.3
2019-Dec-07 14:53 167 5 gusting 11 8.3
2019-Dec-07 14:48 115 5 gusting 11 8.3
2019-Dec-07 14:43 156 4 gusting 7 8.3
2019-Dec-07 14:38 143 1 gusting 7 8.3
2019-Dec-07 14:33 110 2 gusting 7 8.3
2019-Dec-07 14:28 122 5 gusting 6 8.3
2019-Dec-07 14:23 098 1 gusting 6 8.3
2019-Dec-07 14:18 134 2 gusting 8 8.3
2019-Dec-07 14:13 155 3 gusting 8 8.3
2019-Dec-07 14:08 153 4 gusting 7 8.3
2019-Dec-07 14:03 109 4 gusting 9 8.3
2019-Dec-07 13:58 146 2 gusting 9 8.3
2019-Dec-07 13:53 146 6 gusting 8 8.3
2019-Dec-07 13:48 139 4 gusting 9 8.3
2019-Dec-07 13:43 104 6 gusting 9 8.3
2019-Dec-07 13:38 113 0 gusting 7 8.3
2019-Dec-07 13:33 129 5 gusting 8 8.3
2019-Dec-07 13:28 115 3 gusting 8 8.3
2019-Dec-07 13:23 163 1 gusting 7 8.3
2019-Dec-07 13:18 190 4 gusting 6 8.3
2019-Dec-07 13:13 131 2 gusting 7 8.3
2019-Dec-07 13:08 128 0 gusting 8 8.3
2019-Dec-07 13:03 118 2 gusting 9 8.3
2019-Dec-07 12:58 130 5 gusting 9 8.3
2019-Dec-07 12:53 121 5 gusting 8 8.3
2019-Dec-07 12:48 142 5 gusting 8 8.3
2019-Dec-07 12:43 181 2 gusting 9 8.3
2019-Dec-07 12:38 162 3 gusting 9 8.3
2019-Dec-07 12:33 153 1 gusting 7 8.3
2019-Dec-07 12:28 153 1 gusting 7 8.3
2019-Dec-07 12:23 122 2 gusting 7 8.3
2019-Dec-07 12:18 120 2 gusting 7 8.3
2019-Dec-07 12:13 082 2 gusting 7 8.3
2019-Dec-07 12:08 146 1 gusting 11 8.3
2019-Dec-07 12:03 090 6 gusting 11 7.8
2019-Dec-07 11:58 102 2 gusting 8 7.8
2019-Dec-07 11:53 120 7 gusting 7 7.8
2019-Dec-07 11:48 113 3 gusting 9 7.8
2019-Dec-07 11:43 130 5 gusting 9 7.8
2019-Dec-07 11:38 120 4 gusting 7 7.8
2019-Dec-07 11:33 120 6 gusting 6 7.8
2019-Dec-07 11:28 127 4 gusting 4 7.8
2019-Dec-07 11:23 110 1 gusting 4 7.8
2019-Dec-07 11:18 105 1 gusting 4 7.8
2019-Dec-07 11:13 113 2 gusting 4 7.8
2019-Dec-07 11:08 124 1 gusting 3 7.8
2019-Dec-07 11:03 101 2 gusting 3 7.8
2019-Dec-07 10:58 113 0 gusting 3 7.8
2019-Dec-07 10:53 115 1 gusting 3 7.8
2019-Dec-07 10:48 100 1 gusting 2 7.8
2019-Dec-07 10:43 113 2 gusting 2 7.8
2019-Dec-07 10:38 108 1 gusting 2 7.8
2019-Dec-07 10:33 091 7.8
2019-Dec-07 10:28 092 0 gusting 1 7.8
2019-Dec-07 10:23 089 0 gusting 1 7.8
2019-Dec-07 10:18 108 0 gusting 2 7.8
2019-Dec-07 10:13 087 0 gusting 2 7.8
2019-Dec-07 10:08 093 7.8
2019-Dec-07 10:03 012 7.8
2019-Dec-07 09:58 357 7.8
2019-Dec-07 09:53 357 7.8
2019-Dec-07 09:48 357 7.8
2019-Dec-07 09:43 357 7.8
2019-Dec-07 09:38 306 7.8
2019-Dec-07 09:33 306 7.8
2019-Dec-07 09:28 306 7.8
2019-Dec-07 09:23 293 7.8
2019-Dec-07 09:18 293 7.8
2019-Dec-07 09:13 293 7.8
2019-Dec-07 09:08 293 7.8
2019-Dec-07 09:03 293 7.8
2019-Dec-07 08:58 293 7.8
2019-Dec-07 08:53 293 7.8
2019-Dec-07 08:48 293 7.8
2019-Dec-07 08:43 293 7.8
2019-Dec-07 08:38 287 0 gusting 0 8.3
2019-Dec-07 08:33 240 0 gusting 0 8.3
2019-Dec-07 08:28 240 8.3
2019-Dec-07 08:23 240 8.3
2019-Dec-07 08:18 240 8.3
2019-Dec-07 08:13 240 8.3
2019-Dec-07 08:08 257 8.3
2019-Dec-07 08:03 257 8.9
2019-Dec-07 07:58 255 0 gusting 1 8.9
2019-Dec-07 07:53 143 9.4
2019-Dec-07 07:48 117 9.4
2019-Dec-07 07:43 117 9.4
2019-Dec-07 07:38 127 0 gusting 1 9.4
2019-Dec-07 07:33 129 8.9
2019-Dec-07 07:28 126 8.9
2019-Dec-07 07:23 122 8.9
2019-Dec-07 07:18 209 8.9
2019-Dec-07 07:13 209 8.3
2019-Dec-07 07:08 221 0 gusting 0 8.3
2019-Dec-07 07:03 221 8.3
2019-Dec-07 06:58 021 8.3
2019-Dec-07 06:53 120 8.3
2019-Dec-07 06:48 120 8.9
2019-Dec-07 06:43 252 8.9
2019-Dec-07 06:38 252 8.9
2019-Dec-07 06:33 252 8.9
2019-Dec-07 06:28 252 8.9
2019-Dec-07 06:23 258 8.9
2019-Dec-07 06:18 162 8.9
2019-Dec-07 06:13 165 0 gusting 1 8.9
2019-Dec-07 06:08 155 8.9
2019-Dec-07 06:03 153 1 gusting 2 9.4
2019-Dec-07 05:58 231 1 gusting 2 8.9
2019-Dec-07 05:53 196 0 gusting 1 8.9
2019-Dec-07 05:48 134 8.9
2019-Dec-07 05:43 123 9.4
2019-Dec-07 05:38 224 9.4
2019-Dec-07 05:33 201 0 gusting 4 9.4
2019-Dec-07 05:28 203 1 gusting 3 8.9
2019-Dec-07 05:23 212 1 gusting 3 8.9
2019-Dec-07 05:18 251 1 gusting 3 8.9
2019-Dec-07 05:13 241 1 gusting 3 8.9
2019-Dec-07 05:08 263 8.9
2019-Dec-07 05:03 259 0 gusting 3 8.9
2019-Dec-07 04:58 252 0 gusting 2 8.9
2019-Dec-07 04:53 239 0 gusting 3 8.9
2019-Dec-07 04:48 245 0 gusting 3 9.4
2019-Dec-07 04:43 272 1 gusting 3 8.9
2019-Dec-07 04:38 276 0 gusting 3 9.4
2019-Dec-07 04:33 260 2 gusting 2 9.4
2019-Dec-07 04:28 278 1 gusting 2 9.4
2019-Dec-07 04:23 238 1 gusting 6 9.4
2019-Dec-07 04:18 252 1 gusting 6 9.4
2019-Dec-07 04:13 158 0 gusting 6 9.4
2019-Dec-07 04:08 251 0 gusting 3 9.4
2019-Dec-07 04:03 283 0 gusting 3 9.4
2019-Dec-07 03:58 219 2 gusting 6 9.4
2019-Dec-07 03:53 165 1 gusting 7 9.4
2019-Dec-07 03:48 148 3 gusting 7 9.4
2019-Dec-07 03:43 156 6 gusting 7 9.4
2019-Dec-07 03:38 183 0 gusting 6 8.9
2019-Dec-07 03:33 219 1 gusting 7 8.9
2019-Dec-07 03:28 213 2 gusting 7 8.9
2019-Dec-07 03:23 116 2 gusting 6 8.9
2019-Dec-07 03:18 144 2 gusting 6 8.9
2019-Dec-07 03:13 143 1 gusting 4 8.9
2019-Dec-07 03:08 252 8.3
2019-Dec-07 03:03 155 1 gusting 2 8.3
2019-Dec-07 02:58 280 0 gusting 5 8.3
2019-Dec-07 02:53 155 1 gusting 5 8.3
2019-Dec-07 02:48 256 8.3
2019-Dec-07 02:43 147 1 gusting 5 7.8
2019-Dec-07 02:38 170 7.8
2019-Dec-07 02:33 247 7.2
2019-Dec-07 02:28 278 0 gusting 1 7.2
2019-Dec-07 02:23 281 7.2
2019-Dec-07 02:18 293 0 gusting 4 7.2
2019-Dec-07 02:13 276 1 gusting 4 7.8
2019-Dec-07 02:08 279 3 gusting 3 8.3
2019-Dec-07 02:03 288 0 gusting 7 8.9
2019-Dec-07 01:58 184 0 gusting 7 8.9
2019-Dec-07 01:53 252 8.9
2019-Dec-07 01:48 115 0 gusting 4 8.9
2019-Dec-07 01:43 119 2 gusting 4 8.9
2019-Dec-07 01:38 107 0 gusting 6 8.9
2019-Dec-07 01:33 098 2 gusting 6 8.9
2019-Dec-07 01:28 108 0 gusting 5 8.9
2019-Dec-07 01:23 117 2 gusting 5 8.3
2019-Dec-07 01:18 102 2 gusting 4 8.3
2019-Dec-07 01:13 090 0 gusting 4 7.8
2019-Dec-07 01:08 087 1 gusting 4 7.8
2019-Dec-07 01:03 108 1 gusting 4 7.8
2019-Dec-07 00:58 110 3 gusting 3 7.8
2019-Dec-07 00:53 121 0 gusting 2 7.2
2019-Dec-07 00:48 264 0 gusting 2 7.2
2019-Dec-07 00:43 262 7.2
2019-Dec-07 00:38 273 0 gusting 4 7.2
2019-Dec-07 00:33 302 0 gusting 4 7.2
2019-Dec-07 00:28 297 3 gusting 3 7.2
2019-Dec-07 00:23 283 3 gusting 3 7.8
2019-Dec-07 00:18 276 1 gusting 3 7.8
2019-Dec-07 00:13 276 2 gusting 4 7.8
2019-Dec-07 00:08 292 2 gusting 5 7.8
2019-Dec-07 00:03 266 1 gusting 5 7.8
2019-Dec-06 23:58 247 2 gusting 5 8.3
2019-Dec-06 23:53 290 2 gusting 6 8.3
2019-Dec-06 23:48 276 3 gusting 6 8.9
2019-Dec-06 23:43 285 1 gusting 2 8.9
2019-Dec-06 23:38 317 1 gusting 2 9.4
2019-Dec-06 23:33 295 9.4
2019-Dec-06 23:28 257 0 gusting 2 9.4
2019-Dec-06 23:23 260 0 gusting 0 9.4
2019-Dec-06 23:18 233 9.4
2019-Dec-06 23:13 146 8.9
2019-Dec-06 23:08 137 8.9
2019-Dec-06 23:03 123 8.9
2019-Dec-06 22:58 111 0 gusting 3 8.9
2019-Dec-06 22:53 102 1 gusting 4 8.9
2019-Dec-06 22:48 120 2 gusting 4 8.9
2019-Dec-06 22:43 117 1 gusting 3 8.9
2019-Dec-06 22:38 086 1 gusting 2 8.3
2019-Dec-06 22:33 088 0 gusting 2 8.3
2019-Dec-06 22:28 120 0 gusting 2 8.3
2019-Dec-06 22:23 111 1 gusting 1 8.3
2019-Dec-06 22:18 111 0 gusting 2 8.3
2019-Dec-06 22:13 107 0 gusting 2 8.3
2019-Dec-06 22:08 110 1 gusting 3 8.3
2019-Dec-06 22:03 112 0 gusting 4 8.3
2019-Dec-06 21:58 109 1 gusting 4 8.3
2019-Dec-06 21:53 111 1 gusting 3 8.3
2019-Dec-06 21:48 101 1 gusting 2 8.3
2019-Dec-06 21:43 099 1 gusting 2 8.3
2019-Dec-06 21:38 124 0 gusting 1 8.3
2019-Dec-06 21:33 083 0 gusting 1 8.3
2019-Dec-06 21:28 103 1 gusting 2 8.3
2019-Dec-06 21:23 091 8.3
2019-Dec-06 21:18 097 0 gusting 2 8.3
2019-Dec-06 21:13 094 0 gusting 2 8.3
2019-Dec-06 21:08 072 1 gusting 2 8.3
2019-Dec-06 21:03 094 2 gusting 2 8.3
2019-Dec-06 20:58 082 1 gusting 2 8.3
2019-Dec-06 20:53 085 1 gusting 1 8.9
2019-Dec-06 20:48 096 8.9
2019-Dec-06 20:43 126 8.9
2019-Dec-06 20:38 110 0 gusting 1 8.9
2019-Dec-06 20:33 153 0 gusting 1 8.9
2019-Dec-06 20:28 195 8.9
2019-Dec-06 20:23 114 0 gusting 1 8.9
2019-Dec-06 20:18 124 1 gusting 2 8.9
2019-Dec-06 20:13 110 8.3
2019-Dec-06 20:08 101 0 gusting 1 8.3
2019-Dec-06 20:03 223 0 gusting 1 8.3
2019-Dec-06 19:58 127 8.3
2019-Dec-06 19:53 120 8.3
2019-Dec-06 19:48 116 2 gusting 3 8.3
2019-Dec-06 19:43 111 2 gusting 3 8.3
2019-Dec-06 19:38 110 0 gusting 3 8.3
2019-Dec-06 19:33 111 2 gusting 2 8.3
2019-Dec-06 19:28 123 0 gusting 0 7.8
2019-Dec-06 19:23 106 7.8
2019-Dec-06 19:18 106 7.8
2019-Dec-06 19:13 148 7.8
2019-Dec-06 19:08 218 7.8
2019-Dec-06 19:03 254 7.8
2019-Dec-06 18:58 254 7.8
2019-Dec-06 18:53 259 7.8
2019-Dec-06 18:48 259 0 gusting 2 7.8
2019-Dec-06 18:43 245 7.8
2019-Dec-06 18:38 236 7.8
2019-Dec-06 18:33 214 7.8
2019-Dec-06 18:28 141 7.8
2019-Dec-06 18:23 139 0 gusting 1 7.8
2019-Dec-06 18:18 221 7.8
2019-Dec-06 18:13 221 7.8
2019-Dec-06 18:08 196 7.8
2019-Dec-06 18:03 143 7.8
2019-Dec-06 17:58 136 7.8
2019-Dec-06 17:53 131 7.8
2019-Dec-06 17:48 134 7.8
2019-Dec-06 17:43 137 1 gusting 3 7.8
2019-Dec-06 17:38 110 1 gusting 4 7.8
2019-Dec-06 17:33 099 1 gusting 4 7.8
2019-Dec-06 17:28 108 2 gusting 4 7.8
2019-Dec-06 17:23 103 2 gusting 4 7.2
2019-Dec-06 17:18 128 3 gusting 4 7.2
2019-Dec-06 17:13 111 3 gusting 4 7.2
2019-Dec-06 17:08 120 1 gusting 4 7.2
2019-Dec-06 17:03 116 1 gusting 3 7.2
2019-Dec-06 16:58 123 0 gusting 2 7.2
2019-Dec-06 16:53 149 7.2
2019-Dec-06 16:48 124 7.2
2019-Dec-06 16:43 105 7.2
2019-Dec-06 16:38 137 0 gusting 2 7.2
2019-Dec-06 16:33 115 1 gusting 5 7.2
2019-Dec-06 16:28 146 1 gusting 5 7.2
2019-Dec-06 16:23 123 2 gusting 3 6.7
2019-Dec-06 16:18 159 1 gusting 2 6.7
2019-Dec-06 16:13 236 6.7
2019-Dec-06 16:08 124 0 gusting 2 6.7
2019-Dec-06 16:03 124 1 gusting 1 6.7
2019-Dec-06 15:58 118 6.7
2019-Dec-06 15:53 118 6.7
2019-Dec-06 15:48 098 0 gusting 1 6.7
2019-Dec-06 15:43 178 6.7
2019-Dec-06 15:38 178 6.7
2019-Dec-06 15:33 178 6.7
2019-Dec-06 15:28 198 6.7
2019-Dec-06 15:23 213 6.7
2019-Dec-06 15:18 118 6.7
2019-Dec-06 15:13 103 1 gusting 1 7.2
2019-Dec-06 15:08 115 6.7
2019-Dec-06 15:03 120 0 gusting 2 6.7